Regional Weather Roundup
Issued by NWS

Home | Current Version | Previous Version | Text Only | Print | Product List | Glossary On
Versions: 1 2 3 4 5 6 7 8 9 10 11 12 13 14 15 16 17 18 19 20 21 22 23 24 25 26 27 28 29 30 31 32 33 34 35 36 37 38 39 40 41 42 43 44 45 46 47 48 49 50
000
ASUS45 KBOI 201910
RWRID
WEATHER ROUNDUP FOR IDAHO
NATIONAL WEATHER SERVICE BOISE ID
1200 PM MST SAT DEC 20 2014

NOTE: "FAIR" INDICATES FEW OR NO CLOUDS BELOW 12000 FEET
WITH NO SIGNIFICANT WEATHER AND/OR OBSTRUCTIONS TO VISIBILITY

IDZ012-014-202000-
SOUTHWEST IDAHO


CITY           SKY/WX    TMP DP  RH WIND       PRES   REMARKS
BOISE          CLOUDY    43  38  82 SE13      29.98F
CALDWELL       CLOUDY    45  36  70 E13       29.99F
MOUNTAIN HOME  CLOUDY    41  38  89 E16       30.00F
$$

IDZ016-017-202000-
SOUTHCENTRAL IDAHO


CITY           SKY/WX    TMP DP  RH WIND       PRES   REMARKS
BURLEY         LGT RAIN  39  34  82 S12       30.04F WCI  32
JEROME         CLOUDY    38  35  89 SE7       30.03F WCI  33
TWIN FALLS     CLOUDY    43  35  73 S13       30.02
$$

IDZ019>023-202000-
SOUTHEAST IDAHO


CITY           SKY/WX    TMP DP  RH WIND       PRES   REMARKS
IDAHO FALLS    LGT SNOW  34  33  96 S10       30.03F FOG     WCI  26
POCATELLO      CLOUDY    40  35  83 S13       30.05F WCI  32
REXBURG        LGT SNOW  32  32 100 SW7       30.01F FOG     WCI  26
$$

IDZ006-010-011-018-031-032-202000-
CENTRAL IDAHO MOUNTAINS


CITY           SKY/WX    TMP DP  RH WIND       PRES   REMARKS
MCCALL         LGT SNOW  32  31  96 S9        29.90F FOG     WCI  24
HAILEY         LGT SNOW  30  30 100 NW5       30.04F WCI  25
STANLEY          N/A     33  26  75 SE8       29.94F WCI  26
SALMON         PTSUNNY   28  28 100 CALM      29.95F
CHALLIS        MOSUNNY   32  25  75 NE3       29.96F
$$

IDZ002-004-006-007-026-202000-
NORTHERN IDAHO


CITY           SKY/WX    TMP DP  RH WIND       PRES   REMARKS
LEWISTON       CLOUDY    43  38  82 E7        29.84F
LOWELL           N/A     40  37  89 CALM      29.92F
COEUR D`ALENE  CLOUDY    37  36  93 N3        29.80F
MULLAN PASS    SNOW      28  25  88 VRB3      29.76F VSB 1/4
$$


USA.gov is the U.S. government's official web portal to all federal, state and local government web resources and services.